Wind_Speed
25 24 23 23 23 22 21 20 20 20 19 18 17 17 17 17 17 16 16 16 16 17 17 17 17 16 16 17 17 17 17 18 18 19 19 20 21 22 22 23 24 25 25
25 25 25 24 23 23 22 22 22 21 21 20 20 19 19 19 19 19 19 18 19 19 19 19 19 18 19 19 19 19 19 20 21 21 22 23 23 24 25 26 27 28 29
26 26 26 25 24 23 23 23 23 22 22 22 21 21 21 21 21 21 21 20 21 21 21 21 21 21 21 21 22 22 22 22 23 24 25 25 25 26 27 29 30 30 31
26 26 27 26 25 24 24 24 23 23 23 23 23 23 23 23 24 23 23 23 24 24 23 23 23 24 24 25 25 25 25 25 26 26 27 28 28 29 30 31 32 34 35
28 27 27 26 26 26 25 25 24 24 24 25 25 25 25 25 26 26 26 27 27 27 26 26 26 27 27 27 27 28 28 28 29 30 30 31 32 32 33 35 36 37 38
30 29 27 26 27 27 26 26 26 25 26 26 26 26 26 27 27 28 29 30 30 29 29 29 29 29 29 30 30 30 31 32 32 33 34 34 35 36 37 38 39 40 41
29 29 28 29 28 28 28 28 27 27 27 28 28 28 28 29 29 30 30 31 31 31 31 31 31 31 31 32 33 33 34 34 35 36 37 38 39 39 40 41 42 43 43
28 28 28 28 29 30 29 29 30 30 30 31 31 31 30 31 31 31 32 32 32 32 33 33 34 34 35 35 35 36 38 38 38 39 40 41 41 43 44 44 45 46 47
26 28 29 29 29 30 31 31 32 32 32 32 32 33 33 33 32 32 33 34 34 34 34 34 35 36 36 36 37 37 39 40 42 43 44 44 44 45 47 47 48 49 50
24 25 26 28 28 30 31 32 32 32 32 33 34 35 35 34 34 34 34 35 35 36 36 36 37 37 37 38 40 41 42 44 45 46 47 48 48 49 50 51 52 53 54
24 23 24 26 29 31 32 32 32 33 33 34 34 35 35 35 36 37 36 36 37 38 39 40 40 40 41 42 43 44 45 46 47 48 49 50 52 53 54 54 55 56 56
23 23 24 25 28 31 32 33 34 34 35 36 35 35 36 36 37 38 38 38 39 39 40 41 41 43 43 44 45 46 47 48 49 51 52 53 54 56 57 57 58 59 59
22 23 24 26 28 29 31 33 34 35 36 35 35 36 36 37 39 39 39 39 40 40 40 41 42 44 45 46 47 48 49 50 52 53 54 55 56 57 59 60 60 60 61
23 23 25 26 27 29 30 32 34 35 35 34 35 35 36 37 36 37 38 38 39 40 40 41 43 44 45 47 48 49 51 51 52 54 55 56 57 58 59 60 61 61 61
24 25 25 26 27 28 29 31 33 34 34 34 34 34 35 35 36 37 37 38 39 40 41 42 43 45 46 47 48 49 51 52 53 54 55 57 58 58 59 59 59 59 58
24 25 26 26 26 27 27 28 30 32 33 33 33 32 33 33 34 36 37 38 40 42 43 43 44 46 47 48 49 50 51 52 53 54 55 56 56 56 57 57 56 56 55
24 25 25 25 25 26 27 28 29 30 30 31 31 31 32 33 34 35 37 38 39 41 42 44 45 46 47 48 49 49 50 51 51 52 53 53 53 53 53 52 51 50 49
24 24 24 24 25 26 26 27 27 28 28 28 29 30 31 33 34 35 36 38 39 41 42 43 44 46 47 47 48 48 49 49 49 50 50 49 49 48 47 46 44 43 42
24 24 24 25 25 25 26 26 26 27 27 28 29 30 32 33 34 35 37 38 39 40 41 42 43 44 44 45 45 46 46 46 46 46 45 44 43 41 40 39 38 37 36
25 25 25 26 26 26 27 27 27 28 27 28 30 31 32 33 34 35 37 38 39 40 40 41 41 41 42 42 42 42 42 42 41 40 39 37 35 34 34 33 32 31 30
27 27 27 27 27 27 27 27 28 28 28 29 30 31 32 33 34 35 36 36 37 38 38 38 38 38 39 39 38 38 37 35 35 34 32 30 29 29 28 28 27 26 26
27 27 27 27 27 27 27 27 27 27 27 28 29 31 31 32 33 33 34 34 35 35 35 35 35 35 35 34 34 33 31 30 29 27 26 25 25 24 24 24 24 24 24
25 25 25 25 25 25 25 26 26 27 27 27 28 29 30 31 31 31 32 32 32 32 32 31 31 30 29 29 29 28 27 26 24 23 22 22 21 21 20 21 21 22 22
24 25 25 24 25 25 24 24 24 25 26 26 27 28 28 28 28 29 29 29 29 29 28 27 27 26 25 24 24 23 23 21 20 19 18 18 18 18 18 19 20 20 20
23 23 23 23 23 23 22 22 23 24 24 25 26 26 26 26 26 27 27 26 26 26 24 24 23 23 22 22 22 21 19 17 16 16 15 15 15 16 16 17 18 18 18
21 20 20 20 20 20 21 21 22 22 23 24 24 24 24 24 24 24 24 24 23 23 22 21 20 20 20 20 19 18 17 15 14 12 12 12 13 14 14 15 16 16 17
Wind_Direction
249 250 250 249 249 248 247 250 251 252 253 255 257 259 263 266 271 272 275 278 282 287 289 290 292 292 292 290 288 284 285 284 282 281 279 277 278 278 277 277 276 276 275
250 250 250 249 249 249 250 252 253 254 255 258 259 261 264 266 270 273 276 278 282 285 286 286 288 290 290 290 288 285 285 284 282 282 281 280 280 279 279 279 279 277 276
247 248 249 249 248 248 250 252 252 253 256 258 261 264 266 268 269 273 276 277 280 284 285 285 286 287 287 286 286 286 286 284 282 281 282 282 282 281 280 281 280 279 278
244 246 247 246 248 248 250 252 254 255 258 261 263 266 267 269 270 273 276 278 280 281 283 284 284 285 285 284 284 283 283 282 282 281 281 281 281 280 281 280 280 279 277
242 246 246 246 248 249 250 252 255 257 259 262 264 267 268 270 271 272 275 277 279 280 281 283 283 283 284 282 283 283 281 280 280 280 280 281 280 280 280 280 280 280 278
242 242 244 247 249 250 251 252 254 256 258 262 264 266 269 270 272 272 274 277 279 279 280 282 283 282 282 281 282 283 281 281 280 280 280 281 280 280 280 279 279 280 280
244 245 244 247 248 250 251 253 255 257 258 260 262 265 268 270 271 272 274 276 279 279 280 281 281 282 283 283 282 281 281 282 281 281 280 280 281 281 281 281 280 279 279
248 247 246 247 249 250 250 254 256 257 259 261 262 265 268 270 271 272 273 275 277 278 279 280 281 283 283 283 282 281 281 282 282 282 282 282 282 281 281 282 280 280 279
254 253 250 250 252 251 253 255 257 258 259 260 262 264 267 269 270 271 273 274 275 277 278 280 282 283 283 283 283 283 283 283 283 283 283 282 282 283 283 282 282 282 281
257 257 254 253 254 256 257 257 258 259 260 261 264 266 269 270 270 272 273 274 275 276 277 279 281 283 283 284 284 284 284 284 284 284 284 284 284 284 284 283 283 284 283
262 265 261 258 258 258 258 258 259 259 261 264 266 269 271 271 272 273 274 274 275 276 277 279 280 282 283 284 284 285 285 285 285 285 285 285 285 285 285 285 284 284 284
266 269 265 263 263 259 258 258 259 262 262 265 266 268 271 272 272 273 274 275 276 277 279 280 282 284 284 285 285 286 286 286 286 286 286 286 286 286 286 286 286 286 285
269 270 269 267 265 262 260 261 262 263 265 266 267 268 270 272 274 273 274 275 276 278 279 280 282 284 285 286 287 287 287 287 287 287 287 287 288 288 288 288 288 287 286
272 273 272 269 268 267 264 262 262 263 264 267 268 270 271 272 272 272 274 276 277 278 281 283 284 285 286 287 288 288 289 289 289 289 290 289 290 290 289 289 289 289 288
274 274 272 271 269 267 265 264 263 263 264 265 268 270 270 270 271 273 276 278 280 282 284 285 287 288 289 289 289 290 291 291 291 291 292 292 292 292 292 291 291 290 290
273 273 271 269 268 266 264 264 265 267 267 268 267 268 269 270 273 276 279 281 283 285 287 288 289 290 291 291 291 292 293 293 294 294 294 294 294 294 294 293 292 291 290
270 269 268 267 266 267 269 270 271 271 270 270 269 269 271 274 277 280 283 284 286 287 289 289 291 292 293 293 294 294 295 295 296 296 297 297 297 296 296 295 294 293 292
267 268 269 269 270 271 273 274 274 274 272 272 273 275 277 280 281 282 284 286 288 289 290 291 292 293 294 295 296 297 297 297 298 299 299 299 299 299 299 299 298 297 296
266 268 270 271 271 272 274 275 275 276 276 276 278 279 281 282 283 285 286 288 289 290 291 293 294 294 296 297 298 299 300 300 301 301 301 302 302 302 302 302 302 302 301
265 267 269 270 271 272 273 275 277 279 279 279 280 282 283 285 287 288 289 290 291 292 294 295 296 297 298 299 299 301 302 303 304 304 305 306 307 306 307 307 307 307 306
265 267 268 269 270 272 274 276 278 278 279 280 282 284 286 287 289 291 292 293 294 295 297 298 298 299 300 300 301 303 305 307 308 309 310 311 311 311 312 313 314 314 313
262 265 268 269 271 272 275 277 278 280 280 281 285 286 288 290 293 294 295 296 297 298 299 300 301 302 303 304 305 306 308 309 310 312 313 315 316 316 318 319 321 321 320
264 267 269 271 272 275 278 278 278 279 281 284 287 289 291 293 295 296 297 298 299 300 301 303 304 306 307 309 311 311 310 311 312 314 316 319 321 323 325 327 328 329 328
266 268 270 272 274 275 276 276 278 279 283 286 289 291 293 294 295 297 298 299 300 301 302 304 306 308 310 312 314 315 316 315 317 319 321 324 327 329 332 334 336 337 338
265 267 269 272 273 274 274 275 278 281 285 288 290 293 294 295 297 298 299 301 302 303 304 307 309 311 311 313 315 315 316 318 319 321 323 327 331 334 337 339 343 346 348
264 267 268 270 271 272 274 276 279 283 287 290 292 293 295 296 298 300 301 302 304 305 306 308 310 312 313 315 315 316 317 317 319 321 324 330 335 339 342 346 350 352 354
Height
5863 5865 5867 5868 5869 5870 5871 5874 5875 5877 5878 5879 5879 5880 5881 5882 5882 5882 5883 5883 5883 5882 5882 5881 5881 5881 5880 5880 5880 5880 5879 5879 5879 5878 5878 5878 5877 5877 5877 5876 5876 5876 5875
5859 5861 5863 5864 5865 5867 5868 5870 5872 5873 5874 5875 5876 5877 5877 5878 5878 5878 5879 5879 5879 5879 5878 5878 5878 5877 5877 5876 5876 5876 5875 5875 5874 5874 5873 5873 5873 5872 5872 5871 5870 5870 5869
5853 5855 5858 5860 5861 5863 5865 5866 5866 5868 5870 5871 5872 5873 5873 5874 5874 5875 5875 5875 5876 5875 5874 5874 5873 5873 5872 5872 5871 5871 5870 5870 5869 5869 5868 5867 5867 5866 5865 5865 5864 5863 5863
5847 5849 5853 5855 5856 5858 5860 5861 5862 5863 5866 5867 5868 5868 5869 5870 5870 5870 5870 5871 5871 5870 5870 5869 5869 5868 5868 5867 5866 5866 5865 5864 5863 5863 5862 5861 5860 5860 5859 5858 5857 5856 5855
5842 5844 5847 5849 5851 5853 5855 5857 5858 5860 5861 5862 5863 5864 5864 5865 5865 5865 5865 5865 5865 5865 5864 5864 5863 5862 5862 5861 5861 5860 5859 5858 5857 5856 5855 5854 5853 5852 5851 5850 5849 5848 5847
5835 5837 5841 5844 5846 5848 5849 5851 5853 5854 5856 5857 5858 5859 5859 5859 5860 5860 5860 5859 5859 5859 5858 5858 5857 5856 5856 5855 5854 5853 5852 5851 5850 5849 5848 5847 5846 5844 5843 5842 5840 5839 5837
5829 5830 5834 5838 5840 5842 5844 5846 5847 5849 5850 5851 5852 5853 5854 5854 5854 5854 5854 5853 5853 5852 5852 5851 5850 5850 5849 5848 5847 5846 5845 5844 5843 5842 5840 5839 5837 5836 5834 5833 5831 5829 5827
5823 5824 5827 5831 5834 5836 5838 5839 5841 5842 5844 5845 5846 5847 5847 5848 5848 5847 5848 5847 5846 5845 5845 5844 5843 5842 5841 5841 5840 5839 5838 5836 5834 5833 5831 5830 5828 5826 5824 5822 5820 5818 5816
5817 5819 5821 5825 5827 5829 5831 5833 5834 5835 5836 5838 5839 5840 5840 5841 5841 5841 5840 5840 5839 5838 5838 5837 5836 5834 5833 5832 5831 5830 5829 5827 5825 5823 5821 5820 5817 5815 5813 5811 5809 5807 5805
5812 5813 5815 5818 5820 5823 5825 5826 5827 5828 5830 5831 5832 5833 5833 5833 5833 5833 5833 5832 5832 5831 5830 5829 5828 5827 5825 5824 5822 5821 5819 5817 5815 5813 5811 5808 5806 5803 5801 5799 5796 5794 5791
5808 5809 5810 5812 5814 5816 5818 5820 5821 5822 5823 5824 5825 5826 5826 5826 5826 5826 5826 5825 5824 5823 5822 5821 5820 5818 5817 5815 5813 5811 5809 5807 5805 5802 5800 5797 5794 5791 5788 5786 5783 5780 5778
5803 5804 5805 5806 5808 5809 5811 5813 5814 5815 5816 5817 5817 5818 5818 5818 5818 5818 5817 5817 5816 5815 5814 5813 5811 5809 5807 5806 5803 5801 5799 5796 5793 5791 5788 5785 5781 5778 5775 5772 5769 5766 5763
5797 5798 5799 5800 5801 5802 5804 5805 5806 5807 5808 5809 5809 5810 5810 5811 5810 5810 5809 5808 5807 5806 5805 5804 5802 5800 5798 5796 5793 5790 5788 5785 5782 5778 5775 5772 5768 5764 5761 5758 5754 5751 5747
5791 5792 5793 5794 5795 5795 5796 5798 5799 5800 5801 5801 5802 5802 5803 5802 5802 5801 5800 5800 5798 5798 5797 5795 5792 5790 5788 5785 5782 5779 5776 5773 5769 5766 5762 5758 5754 5750 5746 5742 5738 5735 5731
5785 5786 5787 5787 5788 5788 5789 5790 5791 5792 5793 5794 5794 5794 5795 5794 5794 5793 5792 5791 5790 5788 5788 5785 5783 5780 5777 5775 5771 5768 5764 5761 5757 5753 5748 5744 5740 5736 5731 5727 5723 5719 5715
5779 5780 5780 5781 5781 5781 5782 5783 5784 5785 5785 5786 5786 5786 5786 5786 5786 5785 5784 5782 5781 5779 5778 5775 5773 5770 5767 5763 5760 5756 5752 5748 5744 5740 5735 5731 5726 5721 5717 5712 5708 5703 5699
5773 5774 5774 5775 5776 5776 5777 5777 5778 5778 5778 5779 5779 5779 5779 5778 5778 5777 5776 5774 5772 5770 5768 5765 5762 5759 5756 5752 5748 5744 5740 5736 5732 5727 5722 5718 5713 5708 5703 5698 5693 5689 5685
5767 5768 5769 5769 5770 5770 5771 5771 5771 5771 5772 5772 5772 5772 5772 5771 5770 5769 5767 5765 5763 5761 5758 5755 5752 5748 5745 5741 5737 5733 5729 5725 5720 5715 5710 5705 5700 5695 5690 5686 5681 5677 5673
5761 5762 5763 5763 5764 5764 5765 5765 5765 5765 5765 5765 5765 5765 5764 5763 5762 5760 5759 5756 5754 5751 5748 5745 5742 5738 5734 5730 5726 5722 5717 5713 5709 5704 5699 5694 5689 5684 5680 5675 5671 5667 5664
5755 5756 5757 5757 5758 5758 5759 5759 5759 5759 5758 5758 5758 5757 5757 5756 5754 5752 5750 5747 5745 5742 5738 5735 5732 5728 5724 5720 5716 5712 5708 5703 5698 5694 5690 5685 5680 5676 5671 5667 5664 5660 5656
5749 5750 5750 5751 5751 5752 5752 5752 5752 5752 5752 5751 5751 5750 5749 5748 5746 5744 5741 5738 5736 5732 5729 5726 5723 5719 5715 5711 5707 5703 5699 5694 5690 5686 5682 5678 5673 5669 5665 5661 5657 5654 5650
5742 5743 5744 5744 5745 5745 5745 5745 5745 5745 5745 5744 5744 5743 5741 5740 5738 5735 5733 5730 5727 5724 5721 5717 5714 5710 5706 5703 5699 5695 5691 5688 5684 5680 5676 5672 5669 5665 5661 5657 5653 5649 5646
5735 5736 5737 5737 5738 5738 5738 5739 5739 5739 5738 5737 5737 5736 5734 5732 5730 5728 5725 5722 5719 5716 5713 5710 5706 5703 5700 5696 5692 5688 5685 5681 5678 5674 5671 5668 5665 5661 5658 5654 5650 5646 5642
5729 5730 5730 5731 5732 5732 5732 5732 5732 5732 5732 5731 5730 5729 5727 5725 5723 5720 5718 5715 5712 5709 5706 5703 5700 5697 5693 5690 5687 5684 5680 5677 5673 5671 5668 5665 5662 5659 5655 5652 5648 5644 5640
5723 5724 5724 5725 5725 5726 5726 5726 5726 5726 5726 5725 5723 5722 5720 5718 5716 5714 5711 5709 5706 5703 5700 5697 5694 5691 5688 5685 5682 5679 5676 5673 5670 5668 5665 5663 5660 5657 5654 5651 5647 5643 5639
5717 5718 5719 5719 5720 5720 5721 5721 5721 5720 5720 5719 5717 5716 5714 5712 5710 5707 5705 5703 5700 5698 5695 5692 5689 5686 5683 5680 5678 5675 5673 5670 5668 5665 5663 5661 5658 5656 5653 5650 5646 5643 5639